,,Stat6,,Stat2,,Stat8,,Stat9,,Stat10,,Wind1,,Wind1,
time,status,PA1M_AVG,status,PR1M_SUM,status,RH1M_AVG,status,SR1M_AVG,status,TA1M_AVG,status,W1dAve1m,status,W1sAve1m,
2007-01-18, 07:00:03,VALID,919.138,VALID,0,VALID,100,VALID,-0.0169808,VALID,20.705,VALID,264,VALID,0.408913,
2007-01-18, 07:01:00,VALID,919.13,VALID,0,VALID,100,VALID,0,VALID,20.7117,VALID,265,VALID,0.359375,
2007-01-18, 07:02:00,VALID,919.138,VALID,0,VALID,100,VALID,0.0169808,VALID,20.7112,VALID,265,VALID,0.431818,
2007-01-18, 07:03:01,VALID,919.129,VALID,0,VALID,100,VALID,0.0169808,VALID,20.6978,VALID,265,VALID,0.242759,
2007-01-18, 07:04:00,VALID,919.124,VALID,0,VALID,100,VALID,0.0169808,VALID,20.6924,VALID,265,VALID,0.145712,
2007-01-18, 07:05:00,VALID,919.097,VALID,0,VALID,100,VALID,0.0339617,VALID,20.7015,VALID,265,VALID,0,
2007-01-18, 07:06:00,VALID,919.069,VALID,0,VALID,100,VALID,0.0169808,VALID,20.6921,VALID,265,VALID,0,
2007-01-18, 07:07:01,VALID,919.046,VALID,0,VALID,100,VALID,0,VALID,20.6692,VALID,265,VALID,0.255435,
2007-01-18, 07:08:00,VALID,919.013,VALID,0,VALID,100,VALID,0,VALID,20.6536,VALID,105,VALID,0.40659,
2007-01-18, 07:09:00,VALID,918.988,VALID,0,VALID,100,VALID,0.0169808,VALID,20.6273,VALID,95,VALID,0.360899,
2007-01-18, 07:10:01,VALID,918.992,VALID,0,VALID,100,VALID,0,VALID,20.6173,VALID,95,VALID,0.234747,
2007-01-18, 07:11:00,VALID,918.987,VALID,0,VALID,100,VALID,0.0169808,VALID,20.6168,VALID,95,VALID,0.264382,
2007-01-18, 07:12:00,VALID,918.994,VALID,0,VALID,100,VALID,0.0509425,VALID,20.6305,VALID,95,VALID,0.0177557,
2007-01-18, 07:13:00,VALID,919.008,VALID,0,VALID,100,VALID,0,VALID,20.6472,VALID,95,VALID,0.0772166,
2007-01-18, 07:14:01,VALID,919.012,VALID,0,VALID,100,VALID,0,VALID,20.6466,VALID,95,VALID,0.348292,
2007-01-18, 07:15:00,VALID,919.01,VALID,0,VALID,100,VALID,-0.0169808,VALID,20.6601,VALID,95,VALID,0.317361,
2007-01-18, 07:16:00,VALID,919.031,VALID,0,VALID,100,VALID,0,VALID,20.6598,VALID,95,VALID,0.546484,
2007-01-18, 07:17:01,VALID,919.031,VALID,0,VALID,100,VALID,0,VALID,20.663,VALID,95,VALID,0.388579,
2007-01-18, 07:18:00,VALID,919.046,VALID,0,VALID,100,VALID,0.0339617,VALID,20.6789,VALID,95,VALID,0.139096,
2007-01-18, 07:19:00,VALID,919.06,VALID,0,VALID,100,VALID,0,VALID,20.6854,VALID,95,VALID,0.00952744,
2007-01-18, 07:20:00,VALID,919.087,VALID,0,VALID,100,VALID,0,VALID,20.6918,VALID,95,VALID,0.0456032,
2007-01-18, 07:21:01,VALID,919.095,VALID,0,VALID,100,VALID,0,VALID,20.6889,VALID,95,VALID,0.0522017,
2007-01-18, 07:22:01,VALID,919.118,VALID,0,VALID,100,VALID,-0.0169808,VALID,20.6832,VALID,95,VALID,0.00177557,
2007-01-18, 07:23:01,VALID,919.128,VALID,0,VALID,100,VALID,0.0169808,VALID,20.6501,VALID,95,VALID,0,
2007-01-18, 07:24:00,VALID,919.125,VALID,0,VALID,100,VALID,0,VALID,20.6345,VALID,95,VALID,0,
2007-01-18, 07:25:00,VALID,919.121,VALID,0,VALID,100,VALID,0,VALID,20.6173,VALID,95,VALID,0,
2007-01-18, 07:26:00,VALID,919.109,VALID,0,VALID,100,VALID,0,VALID,20.6377,VALID,95,VALID,0,
2007-01-18, 07:27:01,VALID,919.098,VALID,0,VALID,100,VALID,0,VALID,20.6375,VALID,95,VALID,0,
2007-01-18, 07:28:00,VALID,919.097,VALID,0,VALID,100,VALID,0,VALID,20.6501,VALID,95,VALID,0,
2007-01-18, 07:29:01,VALID,919.08,VALID,0,VALID,100,VALID,0,VALID,20.6434,VALID,95,VALID,0,
2007-01-18, 07:30:00,VALID,919.074,VALID,0,VALID,100,VALID,0.0169808,VALID,20.6528,VALID,95,VALID,0.122159,
2007-01-18, 07:31:00,VALID,919.067,VALID,0,VALID,100,VALID,0.0169808,VALID,20.6628,VALID,94,VALID,0.369855,
2007-01-18, 07:32:00,VALID,919.079,VALID,0,VALID,100,VALID,0.0509425,VALID,20.6531,VALID,84,VALID,0.521723,
2007-01-18, 07:33:00,VALID,919.083,VALID,0,VALID,100,VALID,0,VALID,20.6437,VALID,49,VALID,0.65332,
2007-01-18, 07:34:00,VALID,919.086,VALID,0,VALID,100,VALID,0.0339617,VALID,20.6114,VALID,31,VALID,0.382422,
2007-01-18, 07:35:00,VALID,919.081,VALID,0,VALID,100,VALID,0.0169808,VALID,20.5885,VALID,36,VALID,0.531822,
2007-01-18, 07:36:00,VALID,919.058,VALID,0,VALID,100,VALID,0,VALID,20.5756,VALID,37,VALID,0.0895833,
2007-01-18, 07:37:01,VALID,919.048,VALID,0,VALID,100,VALID,0,VALID,20.5823,VALID,37,VALID,0.185826,
2007-01-18, 07:38:00,VALID,919.037,VALID,0,VALID,100,VALID,0.0169808,VALID,20.589,VALID,37,VALID,0.153088,
2007-01-18, 07:39:00,VALID,919.018,VALID,0,VALID,100,VALID,0,VALID,20.5853,VALID,37,VALID,0.0485102,
2007-01-18, 07:40:00,VALID,918.988,VALID,0,VALID,100,VALID,0.0169808,VALID,20.6116,VALID,37,VALID,0.0998884,
2007-01-18, 07:41:01,VALID,918.985,VALID,0,VALID,100,VALID,0.0339617,VALID,20.5982,VALID,34,VALID,0.0623183,
2007-01-18, 07:42:01,VALID,918.977,VALID,0,VALID,100,VALID,0.0339617,VALID,20.6278,VALID,328,VALID,0.409979,
2007-01-18, 07:43:00,VALID,918.963,VALID,0,VALID,100,VALID,0.0169808,VALID,20.6275,VALID,300,VALID,0.48971,
2007-01-18, 07:44:00,VALID,918.96,VALID,0,VALID,100,VALID,-0.0169808,VALID,20.631,VALID,300,VALID,0.327553,
2007-01-18, 07:45:00,VALID,918.95,VALID,0,VALID,100,VALID,-0.101885,VALID,20.6584,VALID,300,VALID,0.50279,
2007-01-18, 07:46:00,VALID,918.946,VALID,0,VALID,100,VALID,-0.101885,VALID,20.6681,VALID,299,VALID,0.517299,
2007-01-18, 07:47:00,VALID,918.922,VALID,0,VALID,100,VALID,-0.0849042,VALID,20.6544,VALID,299,VALID,0.441134,
2007-01-18, 07:48:00,VALID,918.916,VALID,0,VALID,100,VALID,-0.101885,VALID,20.6676,VALID,297,VALID,0.572311,
2007-01-18, 07:49:00,VALID,918.909,VALID,0,VALID,100,VALID,-0.101885,VALID,20.6842,VALID,296,VALID,0.59933,
2007-01-18, 07:50:00,VALID,918.919,VALID,0,VALID,100,VALID,-0.118866,VALID,20.6512,VALID,296,VALID,0.5875,
2007-01-18, 07:51:00,VALID,918.928,VALID,0,VALID,100,VALID,-0.101885,VALID,20.6519,VALID,296,VALID,0.467262,
2007-01-18, 07:52:01,VALID,918.938,VALID,0,VALID,100,VALID,-0.0509425,VALID,20.6549,VALID,296,VALID,0.451079,
2007-01-18, 07:53:00,VALID,918.944,VALID,0,VALID,100,VALID,-0.101885,VALID,20.6616,VALID,296,VALID,0.481944,
2007-01-18, 07:54:00,VALID,918.945,VALID,0,VALID,100,VALID,-0.0849042,VALID,20.6619,VALID,296,VALID,0.409961,
2007-01-18, 07:55:01,VALID,918.93,VALID,0,VALID,100,VALID,-0.101885,VALID,20.6581,VALID,296,VALID,0.45653,
2007-01-18, 07:56:00,VALID,918.936,VALID,0,VALID,100,VALID,-0.101885,VALID,20.6412,VALID,296,VALID,0.4109,
2007-01-18, 07:57:00,VALID,918.92,VALID,0,VALID,100,VALID,-0.101885,VALID,20.6651,VALID,296,VALID,0.198437,
2007-01-18, 07:58:01,VALID,918.892,VALID,0,VALID,100,VALID,-0.101885,VALID,20.6256,VALID,296,VALID,0.0960366,
2007-01-18, 07:59:00,VALID,918.859,VALID,0,VALID,100,VALID,-0.0509425,VALID,20.6377,VALID,296,VALID,0,
2007-01-18, 08:00:01,VALID,918.834,VALID,0,VALID,100,VALID,0,VALID,20.6372,VALID,296,VALID,0.00093006,
2007-01-18, 08:01:00,VALID,918.802,VALID,0,VALID,100,VALID,-0.0169808,VALID,20.6335,VALID,296,VALID,0,
2007-01-18, 08:02:00,VALID,918.773,VALID,0,VALID,100,VALID,0,VALID,20.6302,VALID,296,VALID,0,
2007-01-18, 08:03:01,VALID,918.754,VALID,0,VALID,100,VALID,0,VALID,20.6472,VALID,296,VALID,0,
2007-01-18, 08:04:01,VALID,918.74,VALID,0,VALID,100,VALID,0,VALID,20.627,VALID,296,VALID,0,
2007-01-18, 08:05:01,VALID,918.721,VALID,0,VALID,100,VALID,0,VALID,20.6383,VALID,296,VALID,0.0724432,
2007-01-18, 08:06:00,VALID,918.694,VALID,0,VALID,100,VALID,0,VALID,20.6213,VALID,296,VALID,0.198289,
2007-01-18, 08:07:01,VALID,918.676,VALID,0,VALID,100,VALID,0.0339617,VALID,20.6082,VALID,296,VALID,0.346875,
2007-01-18, 08:08:00,VALID,918.673,VALID,0,VALID,100,VALID,0.0339617,VALID,20.5885,VALID,302,VALID,0.391352,
2007-01-18, 08:09:00,VALID,918.664,VALID,0,VALID,100,VALID,0,VALID,20.5883,VALID,307,VALID,0.258743,
2007-01-18, 08:10:00,VALID,918.658,VALID,0,VALID,100,VALID,0.0509425,VALID,20.5808,VALID,310,VALID,0.271984,
2007-01-18, 08:11:00,VALID,918.648,VALID,0,VALID,100,VALID,0.0509425,VALID,20.5952,VALID,347,VALID,0.455842,
2007-01-18, 08:12:01,VALID,918.663,VALID,0,VALID,100,VALID,0.0169808,VALID,20.6047,VALID,356,VALID,0.256037,
2007-01-18, 08:13:00,VALID,918.657,VALID,0,VALID,100,VALID,0,VALID,20.6144,VALID,356,VALID,0.0770089,
2007-01-18, 08:14:00,VALID,918.658,VALID,0,VALID,100,VALID,0.0169808,VALID,20.6278,VALID,356,VALID,0,
2007-01-18, 08:15:00,VALID,918.65,VALID,0,VALID,100,VALID,0.0169808,VALID,20.6173,VALID,356,VALID,0,
2007-01-18, 08:16:01,VALID,918.636,VALID,0,VALID,100,VALID,0.0339617,VALID,20.6372,VALID,356,VALID,0,
2007-01-18, 08:17:01,VALID,918.613,VALID,0,VALID,100,VALID,0.0169808,VALID,20.6407,VALID,356,VALID,0,
2007-01-18, 08:18:01,VALID,918.598,VALID,0,VALID,100,VALID,0.0169808,VALID,20.6539,VALID,356,VALID,0,
2007-01-18, 08:19:00,VALID,918.563,VALID,0,VALID,100,VALID,0,VALID,20.6469,VALID,356,VALID,0.0774456,
2007-01-18, 08:20:00,VALID,918.545,VALID,0,VALID,100,VALID,0.0339617,VALID,20.6399,VALID,356,VALID,0.325838,
2007-01-18, 08:21:01,VALID,918.516,VALID,0,VALID,100,VALID,0,VALID,20.6437,VALID,357,VALID,0.270597,
2007-01-18, 08:22:01,VALID,918.496,VALID,0,VALID,100,VALID,0,VALID,20.6397,VALID,357,VALID,0.284766,
2007-01-18, 08:23:01,VALID,918.478,VALID,0,VALID,100,VALID,0,VALID,20.6399,VALID,30,VALID,0.230469,
2007-01-18, 08:24:01,VALID,918.467,VALID,0,VALID,100,VALID,0.0339617,VALID,20.6372,VALID,44,VALID,0.654102,
2007-01-18, 08:25:00,VALID,918.436,VALID,0,VALID,100,VALID,0,VALID,20.6106,VALID,59,VALID,0.877131,
2007-01-18, 08:26:00,VALID,918.405,VALID,0,VALID,100,VALID,0.0169808,VALID,20.6084,VALID,56,VALID,0.603379,
2007-01-18, 08:27:01,VALID,918.384,VALID,0,VALID,100,VALID,0,VALID,20.599,VALID,49,VALID,0.797061,
2007-01-18, 08:28:01,VALID,918.349,VALID,0,VALID,100,VALID,-0.0169808,VALID,20.5724,VALID,50,VALID,0.938988,
2007-01-18, 08:29:01,VALID,918.331,VALID,0,VALID,100,VALID,-0.0339617,VALID,20.5769,VALID,42,VALID,0.89968,
2007-01-18, 08:30:01,VALID,918.297,VALID,0,VALID,100,VALID,-0.0679233,VALID,20.5704,VALID,43,VALID,0.552269,
2007-01-18, 08:31:01,VALID,918.27,VALID,0,VALID,100,VALID,-0.0679233,VALID,20.5704,VALID,54,VALID,0.724382,
2007-01-18, 08:32:01,VALID,918.229,VALID,0,VALID,100,VALID,-0.0509425,VALID,20.561,VALID,52,VALID,0.581759,
2007-01-18, 08:33:00,VALID,918.221,VALID,0,VALID,100,VALID,-0.0339617,VALID,20.554,VALID,49,VALID,0.4617,
2007-01-18, 08:34:00,VALID,918.208,VALID,0,VALID,100,VALID,0,VALID,20.5478,VALID,42,VALID,0.449505,
2007-01-18, 08:35:01,VALID,918.201,VALID,0,VALID,100,VALID,-0.0509425,VALID,20.5484,VALID,42,VALID,0.558222,
2007-01-18, 08:36:01,VALID,918.198,VALID,0,VALID,100,VALID,-0.0679233,VALID,20.5357,VALID,41,VALID,0.820131,
2007-01-18, 08:37:01,VALID,918.198,VALID,0,VALID,100,VALID,-0.0509425,VALID,20.5126,VALID,44,VALID,0.81436,
2007-01-18, 08:38:01,VALID,918.196,VALID,0,VALID,100,VALID,-0.0679233,VALID,20.493,VALID,50,VALID,1.12918,
2007-01-18, 08:39:01,VALID,918.2,VALID,0,VALID,100,VALID,-0.0679233,VALID,20.4865,VALID,44,VALID,0.593945,
2007-01-18, 08:40:01,VALID,918.199,VALID,0,VALID,100,VALID,-0.0509425,VALID,20.4962,VALID,50,VALID,0.764695,
2007-01-18, 08:41:00,VALID,918.215,VALID,0,VALID,100,VALID,-0.0509425,VALID,20.4932,VALID,64,VALID,0.63186,
2007-01-18, 08:42:01,VALID,918.214,VALID,0,VALID,100,VALID,-0.0849042,VALID,20.5032,VALID,45,VALID,0.656994,
2007-01-18, 08:43:01,VALID,918.221,VALID,0,VALID,100,VALID,-0.0679233,VALID,20.5128,VALID,35,VALID,0.536458,
2007-01-18, 08:44:01,VALID,918.195,VALID,0,VALID,100,VALID,-0.0509425,VALID,20.5183,VALID,39,VALID,0.670922,
2007-01-18, 08:45:01,VALID,918.17,VALID,0,VALID,100,VALID,0.0169808,VALID,20.5212,VALID,46,VALID,0.693859,
2007-01-18, 08:46:01,VALID,918.14,VALID,0,VALID,100,VALID,0.0339617,VALID,20.5274,VALID,37,VALID,0.300686,
2007-01-18, 08:47:01,VALID,918.101,VALID,0,VALID,100,VALID,0.0169808,VALID,20.5272,VALID,34,VALID,0.757254,
2007-01-18, 08:48:01,VALID,918.079,VALID,0,VALID,100,VALID,0.0169808,VALID,20.5366,VALID,41,VALID,0.749132,
2007-01-18, 08:49:01,VALID,918.053,VALID,0,VALID,100,VALID,0.0679233,VALID,20.5363,VALID,24,VALID,0.680382,
2007-01-18, 08:50:01,VALID,918.043,VALID,0,VALID,100,VALID,0.0169808,VALID,20.5471,VALID,18,VALID,0.576172,
2007-01-18, 08:51:01,VALID,918.053,VALID,0,VALID,100,VALID,0.0339617,VALID,20.5304,VALID,14,VALID,1.02446,
2007-01-18, 08:52:01,VALID,918.035,VALID,0,VALID,100,VALID,0.0169808,VALID,20.5277,VALID,13,VALID,0.963867,
2007-01-18, 08:53:01,VALID,918.034,VALID,0,VALID,100,VALID,0.0339617,VALID,20.5237,VALID,4,VALID,0.785429,
2007-01-18, 08:54:01,VALID,918.023,VALID,0,VALID,100,VALID,0.0169808,VALID,20.5374,VALID,10,VALID,0.637649,
2007-01-18, 08:55:01,VALID,918.014,VALID,0,VALID,100,VALID,0.0169808,VALID,20.5406,VALID,11,VALID,0.837305,
2007-01-18, 08:56:01,VALID,917.993,VALID,0,VALID,100,VALID,0.0679233,VALID,20.5409,VALID,41,VALID,0.640067,
2007-01-18, 08:57:01,VALID,917.972,VALID,0,VALID,100,VALID,0,VALID,20.524,VALID,42,VALID,0.535974,
2007-01-18, 08:58:01,VALID,917.947,VALID,0,VALID,100,VALID,0.0339617,VALID,20.5309,VALID,42,VALID,0.443555,
2007-01-18, 08:59:01,VALID,917.928,VALID,0,VALID,100,VALID,0.0339617,VALID,20.5309,VALID,42,VALID,0.475472,
2007-01-18, 09:00:01,VALID,917.916,VALID,0,VALID,100,VALID,0.0339617,VALID,20.521,VALID,39,VALID,0.500744,
2007-01-18, 09:01:01,VALID,917.914,VALID,0,VALID,100,VALID,0.0509425,VALID,20.5143,VALID,36,VALID,0.304116,
2007-01-18, 09:02:01,VALID,917.898,VALID,0,VALID,100,VALID,0.0339617,VALID,20.5145,VALID,36,VALID,0.65968,
2007-01-18, 09:03:01,VALID,917.875,VALID,0,VALID,100,VALID,0.0849042,VALID,20.4984,VALID,37,VALID,0.57984,
2007-01-18, 09:04:01,VALID,917.849,VALID,0,VALID,100,VALID,0.0679233,VALID,20.4917,VALID,37,VALID,0.536272,
2007-01-18, 09:05:01,VALID,917.833,VALID,0,VALID,100,VALID,0,VALID,20.4957,VALID,48,VALID,0.72619,
2007-01-18, 09:06:00,VALID,917.803,VALID,0,VALID,100,VALID,0.0339617,VALID,20.4857,VALID,38,VALID,0.616338,
2007-01-18, 09:07:00,VALID,917.769,VALID,0,VALID,100,VALID,0.0169808,VALID,20.4849,VALID,38,VALID,0.603423,
2007-01-18, 09:08:00,VALID,917.74,VALID,0,VALID,100,VALID,0.0169808,VALID,20.4855,VALID,34,VALID,0.53316,
2007-01-18, 09:09:00,VALID,917.727,VALID,0,VALID,100,VALID,0.0339617,VALID,20.4795,VALID,34,VALID,0.423781,
2007-01-18, 09:10:00,VALID,917.691,VALID,0,VALID,100,VALID,0.0679233,VALID,20.4787,VALID,34,VALID,0.35665,
2007-01-18, 09:11:00,VALID,917.663,VALID,0,VALID,100,VALID,0.0339617,VALID,20.4822,VALID,34,VALID,0.0973704,
2007-01-18, 09:12:00,VALID,917.656,VALID,0,VALID,100,VALID,0.0509425,VALID,20.4922,VALID,34,VALID,0.231836,
2007-01-18, 09:13:00,VALID,917.649,VALID,0,VALID,100,VALID,0.0169808,VALID,20.4857,VALID,34,VALID,0.0550595,
2007-01-18, 09:14:00,VALID,917.665,VALID,0,VALID,100,VALID,0.0339617,VALID,20.4887,VALID,34,VALID,0.0684622,
2007-01-18, 09:15:00,VALID,917.675,VALID,0,VALID,100,VALID,0.0169808,VALID,20.4787,VALID,34,VALID,0.0232515,
2007-01-18, 09:16:00,VALID,917.694,VALID,0,VALID,100,VALID,0.0509425,VALID,20.5056,VALID,34,VALID,0,
2007-01-18, 09:17:00,VALID,917.716,VALID,0,VALID,100,VALID,0.0339617,VALID,20.5016,VALID,34,VALID,0,
2007-01-18, 09:18:00,VALID,917.733,VALID,0,VALID,100,VALID,0.0509425,VALID,20.511,VALID,34,VALID,0,
2007-01-18, 09:19:00,VALID,917.736,VALID,0,VALID,100,VALID,0.101885,VALID,20.5398,VALID,34,VALID,0.035061,
2007-01-18, 09:20:00,VALID,917.731,VALID,0,VALID,100,VALID,0.0509425,VALID,20.5401,VALID,34,VALID,0.156631,
2007-01-18, 09:21:00,VALID,917.726,VALID,0,VALID,100,VALID,0.0509425,VALID,20.5272,VALID,45,VALID,0.52691,
2007-01-18, 09:22:00,VALID,917.721,VALID,0,VALID,100,VALID,0.0339617,VALID,20.5075,VALID,57,VALID,0.688021,
2007-01-18, 09:23:00,VALID,917.707,VALID,0,VALID,100,VALID,0.0339617,VALID,20.5013,VALID,58,VALID,0.34375,
2007-01-18, 09:24:00,VALID,917.691,VALID,0,VALID,100,VALID,0,VALID,20.5118,VALID,58,VALID,0.319196,
2007-01-18, 09:25:00,VALID,917.674,VALID,0,VALID,100,VALID,0.0679233,VALID,20.4884,VALID,58,VALID,0.364236,
2007-01-18, 09:26:00,VALID,917.663,VALID,0,VALID,100,VALID,0.0679233,VALID,20.4981,VALID,58,VALID,0.529797,
2007-01-18, 09:27:00,VALID,917.668,VALID,0,VALID,100,VALID,0.0339617,VALID,20.5051,VALID,58,VALID,0.068314,
2007-01-18, 09:28:00,VALID,917.668,VALID,0,VALID,100,VALID,0.0339617,VALID,20.4951,VALID,58,VALID,0.0569196,
2007-01-18, 09:29:00,VALID,917.662,VALID,0,VALID,100,VALID,0.0679233,VALID,20.4951,VALID,58,VALID,0.325218,
2007-01-18, 09:30:00,VALID,917.658,VALID,0,VALID,100,VALID,0,VALID,20.4793,VALID,45,VALID,0.660429,
2007-01-18, 09:31:00,VALID,917.668,VALID,0,VALID,100,VALID,0,VALID,20.4698,VALID,35,VALID,0.411979,
2007-01-18, 09:32:00,VALID,917.674,VALID,0,VALID,100,VALID,0.0169808,VALID,20.4728,VALID,35,VALID,0.304087,
2007-01-18, 09:33:00,VALID,917.675,VALID,0,VALID,100,VALID,0.0169808,VALID,20.4798,VALID,35,VALID,0.0142045,
2007-01-18, 09:34:00,VALID,917.682,VALID,0,VALID,100,VALID,0.0339617,VALID,20.4795,VALID,35,VALID,0,
2007-01-18, 09:35:00,VALID,917.68,VALID,0,VALID,100,VALID,0.0169808,VALID,20.5054,VALID,35,VALID,0,
2007-01-18, 09:36:00,VALID,917.675,VALID,0,VALID,100,VALID,0.0339617,VALID,20.5183,VALID,35,VALID,0,
2007-01-18, 09:37:00,VALID,917.657,VALID,0,VALID,100,VALID,0.0169808,VALID,20.5247,VALID,35,VALID,0,
2007-01-18, 09:38:00,VALID,917.64,VALID,0,VALID,100,VALID,0,VALID,20.5177,VALID,35,VALID,0,
2007-01-18, 09:39:00,VALID,917.615,VALID,0,VALID,100,VALID,0,VALID,20.518,VALID,35,VALID,0.172965,
2007-01-18, 09:40:00,VALID,917.595,VALID,0,VALID,100,VALID,0.0169808,VALID,20.5215,VALID,35,VALID,0.240412,
2007-01-18, 09:41:00,VALID,917.56,VALID,0,VALID,100,VALID,0.0339617,VALID,20.5344,VALID,35,VALID,0.289757,
2007-01-18, 09:42:00,VALID,917.525,VALID,0,VALID,100,VALID,0.0339617,VALID,20.5245,VALID,26,VALID,0.465451,
2007-01-18, 09:43:00,VALID,917.498,VALID,0,VALID,100,VALID,0,VALID,20.5183,VALID,26,VALID,0.257457,
2007-01-18, 09:44:00,VALID,917.484,VALID,0,VALID,100,VALID,0.0169808,VALID,20.5183,VALID,25,VALID,0.266555,
2007-01-18, 09:45:00,VALID,917.458,VALID,0,VALID,100,VALID,0,VALID,20.5121,VALID,19,VALID,0.658984,
2007-01-18, 09:46:00,VALID,917.44,VALID,0,VALID,100,VALID,0,VALID,20.4989,VALID,18,VALID,0.483041,
2007-01-18, 09:47:00,VALID,917.424,VALID,0,VALID,100,VALID,0.0169808,VALID,20.4795,VALID,38,VALID,0.724888,
2007-01-18, 09:48:00,VALID,917.42,VALID,0,VALID,100,VALID,0,VALID,20.4733,VALID,42,VALID,0.457986,
2007-01-18, 09:49:00,VALID,917.408,VALID,0,VALID,100,VALID,-0.0169808,VALID,20.4736,VALID,44,VALID,0.570313,
2007-01-18, 09:50:00,VALID,917.429,VALID,0,VALID,100,VALID,0,VALID,20.4698,VALID,51,VALID,0.4734,
2007-01-18, 09:51:00,VALID,917.43,VALID,0,VALID,100,VALID,0,VALID,20.4731,VALID,42,VALID,0.511905,
2007-01-18, 09:52:00,VALID,917.443,VALID,0,VALID,100,VALID,-0.0169808,VALID,20.4572,VALID,36,VALID,0.214658,
2007-01-18, 09:53:00,VALID,917.475,VALID,0,VALID,100,VALID,0,VALID,20.4666,VALID,36,VALID,0.452753,
2007-01-18, 09:54:00,VALID,917.474,VALID,0,VALID,100,VALID,0.0169808,VALID,20.4833,VALID,29,VALID,0.455842,
2007-01-18, 09:55:00,VALID,917.488,VALID,0,VALID,100,VALID,0,VALID,20.4671,VALID,24,VALID,0.479539,
2007-01-18, 09:56:00,VALID,917.486,VALID,0,VALID,100,VALID,0,VALID,20.4601,VALID,18,VALID,0.45476,
2007-01-18, 09:57:00,VALID,917.5,VALID,0,VALID,100,VALID,0,VALID,20.4766,VALID,13,VALID,0.179155,
2007-01-18, 09:58:00,VALID,917.521,VALID,0,VALID,100,VALID,0.0169808,VALID,20.48,VALID,13,VALID,0,
2007-01-18, 09:59:00,VALID,917.52,VALID,0,VALID,100,VALID,0,VALID,20.4793,VALID,13,VALID,0,
2007-01-18, 10:00:00,VALID,917.549,VALID,0,VALID,100,VALID,0,VALID,20.4892,VALID,13,VALID,0,
2007-01-18, 10:01:00,VALID,917.553,VALID,0,VALID,100,VALID,0,VALID,20.5024,VALID,13,VALID,0,
2007-01-18, 10:02:00,VALID,917.563,VALID,0,VALID,100,VALID,-0.0339617,VALID,20.5344,VALID,13,VALID,0,
2007-01-18, 10:03:00,VALID,917.552,VALID,0,VALID,100,VALID,0,VALID,20.5473,VALID,13,VALID,0,
2007-01-18, 10:04:00,VALID,917.552,VALID,0,VALID,100,VALID,-0.0169808,VALID,20.5473,VALID,13,VALID,0.0120908,
2007-01-18, 10:05:00,VALID,917.551,VALID,0,VALID,100,VALID,-0.0169808,VALID,20.5632,VALID,13,VALID,0.0491616,
2007-01-18, 10:06:00,VALID,917.536,VALID,0,VALID,100,VALID,0.0169808,VALID,20.5672,VALID,13,VALID,0.13299,
2007-01-18, 10:07:00,VALID,917.521,VALID,0,VALID,100,VALID,0,VALID,20.5376,VALID,13,VALID,0.0290179,
2007-01-18, 10:08:00,VALID,917.502,VALID,0,VALID,100,VALID,0.0169808,VALID,20.5568,VALID,13,VALID,0,
2007-01-18, 10:09:00,VALID,917.494,VALID,0,VALID,100,VALID,0,VALID,20.5436,VALID,13,VALID,0,
2007-01-18, 10:10:00,VALID,917.484,VALID,0,VALID,100,VALID,0.0169808,VALID,20.5441,VALID,13,VALID,0,
2007-01-18, 10:11:00,VALID,917.469,VALID,0,VALID,100,VALID,0,VALID,20.5538,VALID,13,VALID,0,
2007-01-18, 10:12:00,VALID,917.459,VALID,0,VALID,100,VALID,-0.0169808,VALID,20.5635,VALID,13,VALID,0,
2007-01-18, 10:13:00,VALID,917.435,VALID,0,VALID,100,VALID,0,VALID,20.5863,VALID,13,VALID,0,
2007-01-18, 10:14:00,VALID,917.425,VALID,0,VALID,100,VALID,0,VALID,20.5568,VALID,13,VALID,0,
2007-01-18, 10:15:00,VALID,917.418,VALID,0,VALID,100,VALID,0.0339617,VALID,20.5347,VALID,13,VALID,0,
2007-01-18, 10:16:00,VALID,917.408,VALID,0,VALID,100,VALID,-0.0169808,VALID,20.5183,VALID,13,VALID,0,
2007-01-18, 10:17:00,VALID,917.397,VALID,0,VALID,100,VALID,0.0169808,VALID,20.5153,VALID,13,VALID,0,
2007-01-18, 10:18:00,VALID,917.377,VALID,0,VALID,100,VALID,0,VALID,20.5024,VALID,13,VALID,0.0461483,
2007-01-18, 10:19:00,VALID,917.374,VALID,0,VALID,100,VALID,0,VALID,20.5121,VALID,13,VALID,0,
2007-01-18, 10:20:00,VALID,917.353,VALID,0,VALID,100,VALID,0.0169808,VALID,20.5116,VALID,13,VALID,0,
2007-01-18, 10:21:00,VALID,917.34,VALID,0,VALID,100,VALID,0,VALID,20.5349,VALID,13,VALID,0.00571646,
2007-01-18, 10:22:00,VALID,917.32,VALID,0,VALID,100,VALID,0.0339617,VALID,20.5153,VALID,13,VALID,0.162729,
2007-01-18, 10:23:00,VALID,917.285,VALID,0,VALID,100,VALID,0,VALID,20.5056,VALID,14,VALID,0.458398,
2007-01-18, 10:24:00,VALID,917.256,VALID,0,VALID,100,VALID,-0.0169808,VALID,20.5088,VALID,29,VALID,0.848895,
2007-01-18, 10:25:00,VALID,917.223,VALID,0,VALID,100,VALID,-0.0169808,VALID,20.5024,VALID,33,VALID,1.09304,
